Spencer, IA

2:21 AM CDT on April 24, 2018 (GMT -0500)
Spencer Municipal

Weather History for KSPW - April, 2014

Change the Weather History Date:

Monday, April 7, 2014

  Actual Average Record
Temperature  
Mean Temperature 48 °F -  
Max Temperature 62 °F 56 °F 86 °F (1988)
Min Temperature 37 °F 33 °F 10 °F (1990)
Degree Days  
Heating Degree Days 16    
Moisture  
Dew Point 37 °F    
Average Humidity 69    
Maximum Humidity 93    
Minimum Humidity 42    
Precipitation  
Precipitation 0.00 in - - ()
Sea Level Pressure  
Sea Level Pressure 29.84 in    
Wind  
Wind Speed 7 mph (North)    
Max Wind Speed 23 mph    
Max Gust Speed 29 mph    
Visibility 9 miles    
Events      
Averages and records for this station are not official NWS values.
T = Trace of Precipitation, MM = Missing Value Source: NWS Daily Summary

Daily Weather History Graph

Daily Weather History Graph

Search for Another Location

Airport or City:

Astronomy

Apr. 07, 2014 Rise Set
Actual Time 6:52 AM CDT 7:54 PM CDT
Civil Twilight 6:23 AM CDT 8:23 PM CDT
Nautical Twilight 5:48 AM CDT 8:58 PM CDT
Astronomical Twilight 5:12 AM CDT 9:34 PM CDT
Moon 12:44 PM CDT (4/7) 2:36 AM CDT (4/7)
Length of Visible Light 14h 00m
Length of Day
13h 02m
First Quarter, 53% of the Moon is Illuminated
Apr 7
First Quarter
Apr 15
Full
Apr 22
Last Quarter
Apr 29
New
May 6
First Quarter

Hourly Weather History & Observations

Time (CDT) Temp. Windchill Dew Point Humidity Pressure Visibility Wind Dir Wind Speed Gust Speed Precip Events Conditions
12:53 AM 44.1 °F 41.5 °F 39.0 °F 82% 29.86 in 10.0 mi East 4.6 mph - N/A   Overcast
1:53 AM 44.1 °F 41.5 °F 39.0 °F 82% 29.85 in 9.0 mi East 4.6 mph - N/A   Overcast
2:53 AM 41.0 °F 34.7 °F 37.0 °F 86% 29.81 in 10.0 mi SSE 10.4 mph - N/A   Mostly Cloudy
3:53 AM 41.0 °F - 37.0 °F 86% 29.79 in 10.0 mi Calm Calm - N/A   Overcast
4:53 AM 41.0 °F - 37.9 °F 89% 29.79 in 9.0 mi Calm Calm - N/A   Overcast
5:53 AM 39.9 °F - 37.0 °F 89% 29.80 in 10.0 mi Calm Calm - 0.00 in   Overcast
6:53 AM 37.9 °F - 35.1 °F 89% 29.81 in 6.0 mi Calm Calm - N/A   Mostly Cloudy
7:53 AM 39.0 °F 35.7 °F 37.0 °F 93% 29.83 in 4.0 mi NW 4.6 mph - N/A   Partly Cloudy
8:53 AM 45.0 °F - 41.0 °F 86% 29.83 in 8.0 mi Calm Calm - N/A   Clear
9:53 AM 51.1 °F - 41.0 °F 68% 29.83 in 10.0 mi North 12.7 mph - N/A   Overcast
10:53 AM 54.0 °F - 42.1 °F 64% 29.84 in 10.0 mi North 11.5 mph - N/A   Mostly Cloudy
11:53 AM 57.0 °F - 41.0 °F 55% 29.84 in 10.0 mi North 16.1 mph - N/A   Clear
12:53 PM 57.9 °F - 41.0 °F 53% 29.83 in 10.0 mi NNE 11.5 mph - N/A   Clear
1:53 PM 57.9 °F - 37.9 °F 47% 29.82 in 10.0 mi North 17.3 mph - N/A   Partly Cloudy
3:53 PM 55.9 °F - 37.0 °F 49% 29.81 in 10.0 mi North 12.7 mph - 0.00 in   Mostly Cloudy
4:53 PM 60.1 °F - 39.0 °F 46% 29.81 in 10.0 mi NNW 20.7 mph 27.6 mph 0.00 in   Partly Cloudy
5:53 PM 59.0 °F - 36.0 °F 42% 29.82 in 10.0 mi North 23.0 mph 28.8 mph N/A   Scattered Clouds
6:53 PM 55.9 °F - 34.0 °F 44% 29.84 in 10.0 mi North 17.3 mph 25.3 mph N/A   Partly Cloudy
7:53 PM 50.0 °F - 34.0 °F 54% 29.86 in 10.0 mi NNW 12.7 mph - N/A   Clear
8:53 PM 46.9 °F - 34.0 °F 61% 29.88 in 10.0 mi NNW 10.4 mph - N/A   Clear
9:53 PM 41.0 °F 35.8 °F 34.0 °F 76% 29.90 in 10.0 mi NNW 8.1 mph - N/A   Clear
10:53 PM 37.0 °F 31.0 °F 32.0 °F 82% 29.90 in 10.0 mi NW 8.1 mph - N/A   Scattered Clouds
11:53 PM 42.1 °F 36.1 °F 34.0 °F 73% 29.91 in 10.0 mi NNW 10.4 mph - N/A   Partly Cloudy